星链-1007 (STARLINK-1007 )

导读

STARLINK-1007是美国SpaceX公司星链(Starlink)星座的一颗低轨道卫星,于美国东部时间2019年11月11日发射,属于星链项目早期部署的试验批次卫星,运行在近地轨道,旨在为全球提供高速低延迟互联网宽带服务。星链星座通过大规模组网,实现全球覆盖,为偏远地区、海上和航空等场景提供互联网接入。STARLINK-1007作为早期星链卫星,验证了星链系统的卫星设计、轨道部署和通信技术,为后续大规模组网奠定基础。

基本信息
目录编号:
44713
目录名称:
STARLINK-1007
国际标识:
2019-074A
轨道中心:
EARTH
卫星名称:
星链-1007
卫星全名:
星链-1007 (STARLINK-1007 )
卫星状态:
已陨落 最后检测时间 2024-10-02
发射日期:
2019-11-11 UTC
国别 :
美国 (US)
星等 :
--
轨道信息
数据来源 国际轨道数据
星历时间: 2024-09-27T02:36:49+0800
轨道信息已过期626天
半长轴: 6649.055km
偏心率: 0.0011686
轨道倾角: 53.044°
近地点辐角 344.680°
升交点赤经 1.997°
平近点角 15.387°
近地点: 263.149km
远地点: 278.691km
周期: 89.929分钟
每日圈数: 16.012639
详细信息
固有亮度:
5
最大亮度:
2.5
卫星平台:
Starlink V1.0
覆盖范围:
全球
运营商:
太空探索技术公司
运营商所在国:
美国
制造商(研发单位):
太空探索技术公司
制造商所在国:
美国
使用方式:
暂无
卫星简介
星链(Starlink)计划是由太空探索技术公司(SpaceX)提出的一个巨型低轨卫星互联网星座项目,计划在2019年至2024年间在太空搭建由约1.2万颗卫星组成的“星链”网络,其中1584颗将部署在地球上空550千米处的近地轨道,并从2020年开始工作。该卫星仍在工作。